User: anonymous
Location: Brno
(49.2000°N, 16.6330°E)
Time: 04:00:53
(UTC+02:00)
Language:

Meteor 1-4 Rocket - Orbit

View from above orbital plane
View from above orbital plane
View from above satellite
View from above satellite

Ground track
Ground track

The orbit data is extracted from the following two-line orbital elements,

1 04394U 70037B   14257.42772738  .00006327  00000-0  27658-3 0  6699
2 04394 081.2443 112.4359 0046873 310.2960 049.4178 15.20908853411277
Epoch (UTC): 14 September 2014 10:15:55
Eccentricity: 0.0046873
inclination: 81.2443°
perigee height: 471 km
apogee height: 535 km
right ascension of ascending node: 112.4359°
argument of perigee: 310.2960°
revolutions per day: 15.20908853
mean anomaly at epoch: 49.4178°
orbit number at epoch: 41127

The dashed part of the orbit path shows where the satellite is in the earth's shadow,  

DLR